Home   Weather   Mombasa   Past weeks

Flag for Kenya Past Weather in Mombasa, Kenya — Yesterday and Last 2 Weeks

Now
77 °F

Passing clouds.


Feels Like: 78 °F
Forecast: 74 / 82 °F
Wind: 8 mph from South

Location: Mombasa Airport

Current Time: Sep 29, 2016 at 9:44:10 PM

Latest Report: Sep 29, 2016 at 9:00 PM


Visibility: N/A

Pressure: 30.01 "Hg

Humidity: 83%

Dew Point: 72 °F

Location of MombasaLocation

Past Weather in Mombasa — Graph

°F

Mombasa Temperature Yesterday

Maximum temperature yesterday: 81 °F (at 9:00 AM)
Minimum temperature yesterday: 72 °F (at 2:00 AM)
Average temperature yesterday: 77 °F

High & Low Weather Summary for the Past Weeks

 TemperatureHumidityPressure
High88 °F (Sep 27, 12:00 PM)100% (Sep 15, 7:00 AM)30.12 "Hg (Sep 15, 7:00 AM)
Low68 °F (Sep 15, 4:00 AM)48% (Sep 19, 2:00 PM)29.89 "Hg (Sep 25, 3:00 PM)
Average77 °F76%30.01 "Hg
* Reported Sep 14 8:00 PM — Sep 29 8:00 PM, Mombasa, Weather by CustomWeather, © 2016

Note: Actual official high and low records may vary slightly from our data, if they occured in-between our weather recording intervals... More about our weather records

Advertising

Mombasa Weather History for the Previous 24 Hours

Scroll right to see more
 ConditionsComfort  
Time TempWeatherWind HumidityBarometerVisibility
8:00 PM
Thu, Sep 29
77 °FPassing clouds.6 mph79%29.98 "HgN/A
7:00 PM77 °FPassing clouds.6 mph79%29.98 "HgN/A
6:00 PM79 °FPartly sunny.6 mph74%29.98 "HgN/A
5:00 PM79 °FPartly sunny.7 mph74%29.98 "HgN/A
4:00 PM81 °FScattered showers. Partly sunny.10 mph74%29.98 "HgN/A
3:00 PM82 °FScattered clouds.10 mph66%29.98 "HgN/A
2:00 PM82 °FPartly sunny.12 mph66%30.01 "HgN/A
1:00 PM81 °FPartly sunny.12 mph74%30.01 "HgN/A
12:00 PM82 °FPartly sunny.12 mph70%30.04 "HgN/A
11:00 AM81 °FPartly sunny.9 mph74%30.07 "HgN/A
10:00 AM81 °FPartly sunny.9 mph74%30.09 "HgN/A
9:00 AM79 °FPartly sunny.10 mph79%30.09 "HgN/A
8:00 AM77 °FPartly sunny.3 mph89%30.09 "HgN/A
7:00 AM75 °FSprinkles. Partly sunny.3 mph94%30.07 "HgN/A
6:00 AM73 °FPassing clouds.No wind100%30.04 "HgN/A
5:00 AM73 °FPassing clouds.3 mph94%30.01 "HgN/A
4:00 AM73 °FPassing clouds.3 mph94%30.01 "HgN/A
3:00 AM75 °FPassing clouds.3 mph89%30.01 "HgN/A
2:00 AM75 °FPassing clouds.5 mph89%30.01 "HgN/A
12:00 AM77 °FPassing clouds.5 mph83%30.04 "HgN/A
11:00 PM
Wed, Sep 28
77 °FPassing clouds.5 mph83%30.07 "HgN/A
10:00 PM77 °FPassing clouds.7 mph83%30.07 "HgN/A
9:00 PM77 °FPassing clouds.7 mph83%30.04 "HgN/A
Weather by CustomWeather, © 2016

See weather overviewHow to use our weather pages